{"data":{"norad_id":48405,"intl_designator":"2021-038BE","name":"STARLINK-2570","alt_names":[],"object_type":"PAYLOAD","status":"ACTIVE","operator":null,"country":"US","launch_date":"2021-05-04","launch_site_code":"AFETR","launch_vehicle":null,"mission":null,"orbit_class":"UNKNOWN","rcs_meters":null,"size_class":null,"mass_kg":null,"dimensions":null,"purposes":["comms"],"wikipedia_slug":null,"has_3d_model":false,"image_url":null,"decayed_at":null,"tle_current":{"epoch":"2026-05-24T22:42:23.946336Z","epoch_age_seconds":73590,"freshness":"FRESH","line1":"1 48405U 21038BE  26144.94611049  .00021862  00000+0  71464-3 0  9999","line2":"2 48405  53.1600 338.1794 0001597  81.5627 278.5555 15.31679517279116","mean_motion":15.31679517,"eccentricity":0.0001597,"inclination_deg":53.16,"raan_deg":338.1794,"arg_perigee_deg":81.5627,"mean_anomaly_deg":278.5555,"bstar":0.00071464,"rev_number":27911,"period_min":94.014445190234,"perigee_km":469.70727925591,"apogee_km":471.89483007057,"semimajor_km":6848.9380546632,"source":"CELESTRAK","updated_at":"2026-05-25T13:38:16.712382Z"}}}